[[{"header":{"parameterUnit":"m.s-1","parameterCategory":1,"la1":30.2991,"la2":30.254,"lo1":-89.0895,"lo2":-89.0444,"dy":0.0017,"dx":0.0017,"nx":28,"ny":28,"refTime":"2025-04-28T21:00:00:Z","depth":0,"parameterNumber":2,"parameterNumberName":"U-component_of_WINDS"},"data":[0,0,0,0,0,0,0,0,0,0,0,0,0,0,0,0,0,0,0,0,0,0,0,0,0,0,0,0,0,0,0,0,0,0,0,0,0,0,0,0,0,0,0,0,0,0,0,0,0,0,0,0,0,0,0,0,0,0,-1.0969,-1.0969,0,-1.0946,-1.0946,-1.0946,-1.0909,-1.0909,-1.0908,-1.0907,-1.0884,-1.0884,-1.0884,0,0,0,0,0,0,0,0,0,0,0,0,0,-1.0982,-1.0982,-1.0969,-1.0969,-1.0969,-1.0946,-1.0946,-1.0946,-1.091,-1.0909,-1.0908,-1.0907,-1.0884,-1.0884,-1.0884,0,0,0,0,0,0,0,0,0,0,0,0,0,-1.0969,-1.0982,-1.0969,-1.0948,-1.0946,-1.0947,-1.0946,-1.0946,-1.091,-1.0909,-1.0908,-1.0907,-1.0884,-1.0884,-1.0884,-1.0905,0,0,-1.0884,-1.0885,0,0,0,0,0,0,0,0,-1.097,-1.0969,-1.0951,-1.0949,-1.0947,-1.093,-1.0942,-1.0932,-1.091,-1.0923,-1.0907,-1.0906,-1.09,-1.0899,-1.0897,-1.0903,-1.0902,-1.0884,-1.0885,-1.0885,-1.0885,0,0,0,0,0,0,0,-1.0971,-1.097,-1.096,-1.0951,-1.0948,-1.094,-1.0937,-1.094,-1.0918,-1.0922,-1.0919,-1.0917,-1.0899,-1.0897,-1.0896,-1.0902,-1.0884,-1.0885,-1.0885,-1.0885,-1.0925,-1.0926,0,0,0,0,0,0,-1.0975,-1.0971,-1.0961,-1.0959,-1.0956,-1.094,-1.0937,-1.0936,-1.0918,-1.0914,-1.0918,-1.0916,-1.0897,-1.0896,-1.0895,-1.0918,-1.0885,-1.0885,-1.0885,-1.0924,-1.0925,-1.0926,0,0,0,0,0,0,-1.0975,-1.0974,-1.0962,-1.0964,-1.0962,-1.0941,-1.094,-1.0936,-1.0934,-1.0915,-1.091,-1.092,-1.0897,-1.0895,-1.0903,-1.0917,-1.0885,-1.0885,-1.0923,-1.0924,-1.0926,-1.0964,0,0,0,0,0,0,-1.0976,-1.0975,-1.0982,-1.0965,-1.0962,-1.097,-1.0941,-1.0937,-1.0934,-1.0931,-1.0915,-1.0912,-1.0896,-1.0903,-1.0903,-1.0916,-1.0885,-1.0921,-1.0923,-1.0925,-1.0961,-1.0966,-1.0971,0,0,0,0,0,-1.0976,-1.0993,-1.0982,-1.0981,-1.0971,-1.097,-1.0969,-1.095,-1.0936,-1.0943,-1.093,-1.0912,-1.0915,-1.0904,-1.0903,-1.0917,-1.092,-1.0923,-1.0925,-1.0959,-1.0965,-1.0971,0,0,0,0,0,0,-1.1013,-1.0991,-1.0978,-1.099,-1.0983,-1.0964,-1.0973,-1.0957,-1.0953,-1.095,-1.0927,-1.0924,-1.0935,-1.0926,-1.0914,-1.0936,-1.0915,-1.0917,-1.0941,-1.0947,-1.0952,-1.0953,-1.0885,0,0,0,0,0,-1.1022,-1.1024,-1.1004,-1.1017,-1.1013,-1.0994,-1.0993,-1.0979,-1.097,-1.0967,-1.0955,-1.0947,-1.0946,-1.0946,-1.0944,-1.096,-1.0956,-1.0969,-1.0974,-1.0978,-1.098,-1.0989,-1.0994,-1.0934,-1.0934,-1.0934,0,0,-1.1042,-1.103,-1.1032,-1.1024,-1.1016,-1.1019,-1.0991,-1.0995,-1.0997,-1.0967,-1.0974,-1.0965,-1.0955,-1.0967,-1.0971,-1.096,-1.0996,-1.0981,-1.0984,-1.0985,-1.0992,-1.0998,-1.1003,-1.0936,-1.0935,-1.0935,0,0,-1.1078,-1.1069,-1.1079,-1.1072,-1.1061,-1.1048,-1.105,-1.1034,-1.1027,-1.1033,-1.1012,-1.1014,-1.1012,-1.1006,-1.1003,-1.1038,-1.1022,-1.1038,-1.1064,-1.1072,-1.1077,-1.1081,-1.1094,-1.1099,-1.1041,-1.1041,-1.1041,0,-1.1104,-1.1106,-1.1086,-1.1091,-1.1088,-1.1062,-1.1072,-1.1066,-1.1055,-1.1054,-1.1042,-1.104,-1.1031,-1.1042,-1.1051,-1.1049,-1.1051,-1.104,-1.1078,-1.1082,-1.1086,-1.1098,-1.1103,-1.1043,-1.1043,-1.1042,-1.1042,0,-1.1139,-1.1141,-1.115,-1.114,-1.1139,-1.1146,-1.1127,-1.1128,-1.1114,-1.1103,-1.111,-1.1098,-1.1094,-1.1095,-1.1082,-1.1104,-1.1098,-1.1082,-1.1061,-1.1094,-1.1105,-1.1109,-1.1046,-1.1045,-1.1045,-1.1044,0,0,-1.1198,-1.1177,-1.118,-1.1176,-1.1162,-1.1163,-1.117,-1.1166,-1.1167,-1.1161,-1.1166,-1.1166,-1.1152,-1.1148,-1.1134,-1.1141,-1.1171,-1.1125,-1.1124,-1.1134,-1.1195,-1.1207,-1.1213,-1.116,-1.116,-1.1161,-1.1196,0,-1.1232,-1.1242,-1.1224,-1.1238,-1.124,-1.1216,-1.1221,-1.1214,-1.1203,-1.1204,-1.1192,-1.1193,-1.1174,-1.1171,-1.1178,-1.1166,-1.1183,-1.1163,-1.1165,-1.1165,-1.1168,-1.1219,-1.1231,-1.1265,-1.12,-1.1201,-1.1202,0,-1.1273,-1.1269,-1.1283,-1.1269,-1.1269,-1.1275,-1.127,-1.1271,-1.1262,-1.1254,-1.125,-1.1233,-1.1239,-1.1219,-1.1227,-1.1214,-1.1213,-1.1208,-1.1209,-1.1208,-1.1186,-1.122,-1.1275,-1.1281,-1.1208,-1.1208,-1.1207,0,-1.1315,-1.1313,-1.1322,-1.1318,-1.1302,-1.1307,-1.13,-1.129,-1.1289,-1.1285,-1.1284,-1.128,-1.1279,-1.1276,-1.126,-1.1246,-1.127,-1.1248,-1.1264,-1.1264,-1.127,-1.127,-1.1327,-1.127,-1.1269,-1.1269,-1.1269,0,-1.1356,-1.1366,-1.1341,-1.1346,-1.1357,-1.1336,-1.1347,-1.1338,-1.133,-1.1333,-1.1312,-1.1315,-1.1293,-1.1294,-1.1281,-1.129,-1.1289,-1.1283,-1.128,-1.1286,-1.1286,-1.1285,-1.1283,-1.1271,-1.127,-1.127,-1.127,0,-1.1405,-1.1388,-1.1396,-1.138,-1.1376,-1.1385,-1.1371,-1.1376,-1.1364,-1.1369,-1.1369,-1.135,-1.1351,-1.1334,-1.1331,-1.1322,-1.1338,-1.1329,-1.1341,-1.1338,-1.1356,-1.1354,-1.1413,-1.142,-1.1359,-1.1359,-1.136,0,-1.1432,-1.1439,-1.1424,-1.1425,-1.1419,-1.142,-1.1419,-1.1399,-1.1399,-1.139,-1.1396,-1.1395,-1.1393,-1.1395,-1.1382,-1.138,-1.1372,-1.1392,-1.1371,-1.1377,-1.1373,-1.1373,-1.1373,-1.1397,-1.1398,-1.1398,-1.1399,0,-1.1482,-1.1474,-1.1473,-1.1469,-1.1468,-1.1464,-1.1459,-1.1461,-1.1439,-1.144,-1.1441,-1.1439,-1.1437,-1.1436,-1.1432,-1.1425,-1.1409,-1.1406,-1.141,-1.1416,-1.1422,-1.1419,-1.1353,-1.1405,-1.1404,-1.1404,-1.1403,-1.1403,-1.1521,-1.1527,-1.1517,-1.1517,-1.1511,-1.1507,-1.151,-1.1499,-1.1499,-1.1496,-1.1484,-1.1486,-1.1478,-1.147,-1.1465,-1.1467,-1.1457,-1.1462,-1.1463,-1.1465,-1.1469,-1.1422,-1.1466,-1.1466,-1.1466,-1.1466,-1.1465,0,-1.1571,-1.1564,-1.1564,-1.1557,-1.1557,-1.1541,-1.1535,-1.1536,-1.1539,-1.1532,-1.1531,-1.1532,-1.1531,-1.1518,-1.1516,-1.152,-1.1513,-1.152,-1.152,-1.1519,-1.1478,-1.1475,-1.1526,-1.1526,-1.1526,-1.1526,-1.1526,-1.1526,-1.1597,-1.1606,-1.1596,-1.1602,-1.1594,-1.1597,-1.1594,-1.1591,-1.1585,-1.1587,-1.1587,-1.1578,-1.1569,-1.1566,-1.1565,-1.1561,-1.1562,-1.1572,-1.1566,-1.1528,-1.1522,-1.1516,-1.1513,-1.1572,-1.1572,-1.1607,-1.1607,-1.1607]},{"header":{"parameterUnit":"m.s-1","parameterCategory":1,"la1":30.2991,"la2":30.254,"lo1":-89.0895,"lo2":-89.0444,"dy":0.0017,"dx":0.0017,"nx":28,"ny":28,"refTime":"2025-04-28T21:00:00:Z","depth":0,"parameterNumber":3,"parameterNumberName":"V-component_of_WINDS"},"data":[0,0,0,0,0,0,0,0,0,0,0,0,0,0,0,0,0,0,0,0,0,0,0,0,0,0,0,0,0,0,0,0,0,0,0,0,0,0,0,0,0,0,0,0,0,0,0,0,0,0,0,0,0,0,0,0,0,0,4.5783,4.5783,0,4.5778,4.5778,4.5778,4.5694,4.5692,4.5689,4.5687,4.5682,4.5684,4.5686,0,0,0,0,0,0,0,0,0,0,0,0,0,4.5719,4.5721,4.5783,4.5783,4.5783,4.5778,4.5778,4.5778,4.5694,4.5691,4.5689,4.5686,4.5682,4.5684,4.5686,0,0,0,0,0,0,0,0,0,0,0,0,0,4.5734,4.5722,4.5783,4.574,4.5736,4.5778,4.5778,4.5778,4.5695,4.5691,4.5688,4.5685,4.5681,4.5684,4.5687,4.5768,0,0,4.5695,4.5696,0,0,0,0,0,0,0,0,4.5733,4.5736,4.5747,4.5743,4.5739,4.5733,4.5753,4.5774,4.5695,4.5711,4.5687,4.5684,4.5702,4.5703,4.5709,4.5768,4.5768,4.5695,4.5697,4.5698,4.5699,0,0,0,0,0,0,0,4.5732,4.5736,4.5781,4.5747,4.5742,4.5721,4.572,4.5757,4.5724,4.5709,4.5703,4.5703,4.5699,4.5706,4.5708,4.5767,4.5695,4.5698,4.5699,4.5701,4.5892,4.5895,0,0,0,0,0,0,4.5737,4.5736,4.5781,4.5781,4.5728,4.5725,4.5724,4.5738,4.5724,4.5718,4.5706,4.57,4.5703,4.5705,4.5708,4.5801,4.5698,4.5701,4.5702,4.5888,4.5892,4.5896,0,0,0,0,0,0,4.5736,4.5742,4.5781,4.5757,4.576,4.573,4.5747,4.574,4.5747,4.5722,4.5715,4.572,4.5701,4.5704,4.5753,4.5799,4.5702,4.5705,4.5884,4.589,4.5894,4.5988,0,0,0,0,0,0,4.5735,4.5742,4.5773,4.5758,4.5762,4.5827,4.575,4.5742,4.5752,4.5743,4.5732,4.5727,4.5698,4.575,4.5756,4.5801,4.5707,4.588,4.5887,4.5893,4.5981,4.5996,4.6009,0,0,0,0,0,4.5733,4.58,4.5775,4.5781,4.5799,4.583,4.5832,4.5797,4.5756,4.5786,4.577,4.5728,4.5794,4.5755,4.5762,4.5809,4.5877,4.5885,4.5892,4.5975,4.5993,4.6009,0,0,0,0,0,0,4.5821,4.5797,4.5769,4.5833,4.5834,4.5816,4.5853,4.5818,4.5831,4.5822,4.5778,4.5777,4.5833,4.5826,4.5784,4.5886,4.5828,4.5837,4.5888,4.5906,4.5919,4.5919,4.5709,0,0,0,0,0,4.5848,4.5875,4.5853,4.5912,4.5914,4.5884,4.5896,4.5869,4.5868,4.5868,4.5855,4.5856,4.5876,4.5891,4.5909,4.598,4.5976,4.6016,4.603,4.6042,4.6049,4.6085,4.6102,4.5921,4.5921,4.5921,0,0,4.5904,4.5894,4.5914,4.5929,4.5927,4.5955,4.5884,4.5918,4.5938,4.5873,4.5918,4.591,4.5907,4.5968,4.5994,4.5964,4.6099,4.6051,4.6061,4.6062,4.6095,4.6112,4.6128,4.5927,4.5926,4.5925,0,0,4.602,4.6016,4.6064,4.6063,4.606,4.604,4.6052,4.6038,4.6029,4.6075,4.6026,4.605,4.6087,4.6087,4.6092,4.6209,4.617,4.6216,4.6288,4.6324,4.6338,4.635,4.639,4.6405,4.6224,4.6224,4.6225,0,4.609,4.6131,4.6093,4.6129,4.6137,4.6079,4.6127,4.6128,4.6132,4.6138,4.6105,4.6149,4.6144,4.6203,4.6231,4.6238,4.6249,4.6216,4.6339,4.6351,4.6362,4.64,4.6415,4.623,4.6229,4.6229,4.6228,0,4.6216,4.6245,4.6284,4.6288,4.63,4.6343,4.6311,4.6328,4.63,4.6284,4.633,4.6322,4.6336,4.6349,4.6322,4.6404,4.6386,4.6347,4.6286,4.6385,4.642,4.6434,4.6238,4.6236,4.6234,4.6233,0,0,4.6386,4.6369,4.6384,4.6384,4.6377,4.6399,4.6438,4.6452,4.6467,4.6472,4.6503,4.6536,4.6499,4.6505,4.6478,4.651,4.6601,4.6467,4.6466,4.649,4.6689,4.6717,4.6734,4.6576,4.6579,4.6581,4.6688,0,4.6497,4.6562,4.6529,4.6599,4.6625,4.6571,4.6605,4.6604,4.659,4.6609,4.6593,4.6617,4.6568,4.6571,4.66,4.6584,4.664,4.6576,4.6603,4.6605,4.6604,4.6753,4.6782,4.6884,4.6702,4.6704,4.6706,0,4.6634,4.6644,4.6716,4.6703,4.6712,4.6744,4.6753,4.6773,4.6771,4.6758,4.6765,4.6731,4.6768,4.6711,4.6761,4.6718,4.6728,4.6722,4.6725,4.6724,4.666,4.6755,4.6916,4.6931,4.6727,4.6725,4.6724,0,4.6749,4.678,4.6827,4.6829,4.6816,4.6839,4.6834,4.6829,4.684,4.6849,4.6855,4.6868,4.6875,4.6887,4.6857,4.6818,4.6911,4.6851,4.69,4.6901,4.6921,4.692,4.7085,4.6931,4.6931,4.693,4.693,0,4.6874,4.692,4.6878,4.6906,4.6956,4.6918,4.6968,4.6958,4.6954,4.6979,4.6934,4.6959,4.6919,4.694,4.6918,4.6962,4.6966,4.6956,4.6949,4.6959,4.696,4.6963,4.6955,4.6934,4.6933,4.6933,4.6932,0,4.701,4.6984,4.7031,4.7014,4.7011,4.7048,4.7034,4.706,4.7042,4.7075,4.7081,4.7054,4.7076,4.7048,4.7068,4.7052,4.7113,4.7096,4.7113,4.7107,4.7158,4.7153,4.7329,4.735,4.7185,4.7186,4.7188,0,4.7091,4.7125,4.7112,4.7125,4.7123,4.7146,4.7156,4.7121,4.7133,4.7133,4.7159,4.7177,4.719,4.7228,4.721,4.7225,4.7207,4.7268,4.7209,4.7218,4.7206,4.7204,4.7206,4.728,4.7282,4.7283,4.7285,0,4.7237,4.7222,4.7238,4.725,4.7263,4.7271,4.7275,4.7289,4.7252,4.7268,4.729,4.73,4.732,4.7339,4.7349,4.7344,4.7308,4.7304,4.7315,4.7325,4.7333,4.7328,4.7144,4.7299,4.7298,4.7297,4.7296,4.7295,4.7346,4.7373,4.7368,4.7387,4.7387,4.7392,4.7415,4.74,4.7418,4.7431,4.7409,4.7437,4.7434,4.7443,4.7443,4.7464,4.7437,4.7455,4.7459,4.7464,4.7471,4.7331,4.7466,4.7465,4.7465,4.7464,4.7464,0,4.7488,4.7482,4.7501,4.7508,4.7523,4.7488,4.7491,4.7506,4.7531,4.7531,4.7544,4.7569,4.7587,4.7571,4.7585,4.7605,4.7589,4.761,4.7607,4.7606,4.7494,4.7481,4.7622,4.7622,4.7622,4.7622,4.7622,4.7622,4.7564,4.7607,4.7592,4.7634,4.7628,4.7654,4.7659,4.7663,4.7662,4.7692,4.7707,4.7696,4.7689,4.7703,4.7718,4.7712,4.7719,4.7746,4.7735,4.763,4.7614,4.7599,4.7587,4.7748,4.7748,4.7845,4.7846,4.7846]}]]